| time (UTC) | temp F | wind direction | speed MPH | gust MPH | rain 1hr in | rain 24hr in | rain mn in | humidity % | barometer mb |
| 20260831060012 | 75 | 15 | 0.0 | 2.0 | 0.00 | 0.00 | 0.00 | 89 | 1018.2 |
| 20260831054551 | 75 | 72 | 0.0 | 0.0 | 0.00 | 0.00 | 0.00 | 88 | 1017.9 |
| 20260831053020 | 75 | 72 | 0.0 | 0.0 | 0.00 | 0.00 | 0.00 | 88 | 1018.1 |
| 20260831051602 | 75 | 72 | 0.0 | 1.0 | 0.00 | 0.00 | 0.00 | 88 | 1017.9 |
| 20260831050045 | 75 | 154 | 0.0 | 3.0 | 0.00 | 0.00 | 0.00 | 88 | 1017.8 |
| 20260831044504 | 75 | 77 | 0.0 | 2.0 | 0.00 | 0.00 | 0.00 | 89 | 1017.9 |
| 20260831043044 | 75 | 158 | 0.0 | 1.0 | 0.00 | 0.00 | 0.00 | 89 | 1018.1 |
| 20260831041516 | 76 | 134 | 0.0 | 0.0 | 0.00 | 0.00 | 0.00 | 89 | 1018.1 |
| 20260831040058 | 76 | 153 | 0.0 | 3.0 | 0.00 | 0.00 | 0.00 | 89 | 1018.1 |
| 20260831034520 | 76 | 215 | 0.0 | 6.0 | 0.00 | 0.00 | 0.00 | 88 | 1018.1 |
| 20260831033104 | 76 | 138 | 2.0 | 5.0 | 0.00 | 0.00 | 0.00 | 88 | 1018.1 |
| 20260831031536 | 76 | 102 | 0.0 | 5.0 | 0.00 | 0.00 | 0.00 | 88 | 1018.2 |
| 20260831030006 | 76 | 139 | 1.0 | 5.0 | 0.00 | 0.00 | 0.00 | 87 | 1018.3 |
| 20260831024608 | 76 | 165 | 0.0 | 7.0 | 0.00 | 0.00 | 0.00 | 87 | 1018.5 |
| 20260831023018 | 76 | 146 | 1.0 | 6.0 | 0.00 | 0.00 | 0.00 | 87 | 1018.6 |
| 20260831021602 | 77 | 83 | 1.0 | 4.0 | 0.00 | 0.00 | 0.00 | 86 | 1018.7 |
| 20260831020035 | 77 | 153 | 1.0 | 6.0 | 0.00 | 0.00 | 0.00 | 86 | 1018.6 |
| 20260831014611 | 77 | 154 | 2.0 | 6.0 | 0.00 | 0.00 | 0.00 | 85 | 1018.6 |
| 20260831013034 | 77 | 181 | 2.0 | 6.0 | 0.00 | 0.00 | 0.00 | 85 | 1018.8 |
| 20260831011515 | 77 | 78 | 2.0 | 10.0 | 0.00 | 0.00 | 0.00 | 85 | 1018.7 |
| 20260831010051 | 77 | 165 | 3.0 | 10.0 | 0.00 | 0.00 | 0.00 | 85 | 1018.6 |
| 20260831004519 | 77 | 164 | 5.0 | 12.0 | 0.00 | 0.00 | 0.00 | 85 | 1018.5 |
| 20260831003104 | 77 | 62 | 2.0 | 11.0 | 0.00 | 0.00 | 0.00 | 84 | 1018.3 |
| 20260831001539 | 77 | 152 | 4.0 | 11.0 | 0.00 | 0.00 | 0.00 | 84 | 1018.4 |
| 20260831000114 | 77 | 163 | 1.0 | 10.0 | 0.00 | 0.00 | 0.00 | 84 | 1018.3 |
| 20260830234607 | 77 | 39 | 4.0 | 9.0 | 0.00 | 0.00 | 0.00 | 83 | 1018.2 |
| 20260830233021 | 78 | 91 | 5.0 | 14.0 | 0.00 | 0.00 | 0.00 | 82 | 1018.3 |
| 20260830231603 | 78 | 211 | 3.0 | 10.0 | 0.00 | 0.00 | 0.00 | 81 | 1018.3 |
| 20260830230034 | 78 | 127 | 2.0 | 10.0 | 0.00 | 0.00 | 0.00 | 81 | 1018.5 |
| 20260830224616 | 78 | 62 | 3.0 | 8.0 | 0.00 | 0.00 | 0.00 | 81 | 1018.4 |
| 20260830223040 | 79 | 154 | 2.0 | 8.0 | 0.00 | 0.00 | 0.00 | 80 | 1018.4 |
| 20260830221509 | 79 | 167 | 4.0 | 11.0 | 0.00 | 0.00 | 0.00 | 80 | 1018.4 |
| 20260830220044 | 79 | 152 | 3.0 | 9.0 | 0.00 | 0.00 | 0.00 | 80 | 1018.3 |
| 20260830214517 | 79 | 107 | 2.0 | 10.0 | 0.00 | 0.00 | 0.00 | 79 | 1018.3 |
| 20260830213110 | 80 | 22 | 3.0 | 7.0 | 0.00 | 0.00 | 0.00 | 79 | 1018.4 |
| 20260830211528 | 80 | 80 | 2.0 | 8.0 | 0.00 | 0.00 | 0.00 | 78 | 1018.2 |
| 20260830210108 | 80 | 167 | 2.0 | 8.0 | 0.00 | 0.00 | 0.00 | 77 | 1018.3 |
| 20260830204533 | 80 | 185 | 4.0 | 8.0 | 0.00 | 0.00 | 0.00 | 77 | 1018.4 |
| 20260830203002 | 80 | 63 | 2.0 | 8.0 | 0.00 | 0.00 | 0.00 | 76 | 1018.7 |
| 20260830201607 | 80 | 186 | 2.0 | 7.0 | 0.00 | 0.00 | 0.00 | 76 | 1018.8 |
| 20260830200015 | 81 | 193 | 2.0 | 9.0 | 0.00 | 0.00 | 0.00 | 75 | 1019.0 |
| 20260830194551 | 81 | 66 | 2.0 | 10.0 | 0.00 | 0.00 | 0.00 | 75 | 1019.0 |
| 20260830193019 | 81 | 68 | 3.0 | 8.0 | 0.00 | 0.00 | 0.00 | 74 | 1019.0 |
| 20260830191556 | 81 | 182 | 3.0 | 9.0 | 0.00 | 0.00 | 0.00 | 73 | 1019.2 |
| 20260830190029 | 82 | 186 | 2.0 | 8.0 | 0.00 | 0.00 | 0.00 | 71 | 1019.4 |
| 20260830184602 | 82 | 160 | 2.0 | 9.0 | 0.00 | 0.00 | 0.00 | 71 | 1019.6 |
| 20260830183032 | 82 | 172 | 4.0 | 10.0 | 0.00 | 0.00 | 0.00 | 70 | 1019.9 |
| 20260830181612 | 82 | 245 | 3.0 | 8.0 | 0.00 | 0.00 | 0.00 | 70 | 1020.0 |
| 20260830180049 | 83 | 165 | 4.0 | 9.0 | 0.00 | 0.00 | 0.00 | 67 | 1020.2 |
| 20260830174515 | 83 | 71 | 2.0 | 8.0 | 0.00 | 0.00 | 0.00 | 67 | 1020.4 |
| 20260830173102 | 83 | 185 | 4.0 | 9.0 | 0.00 | 0.00 | 0.00 | 66 | 1020.5 |
| 20260830171526 | 85 | 153 | 2.0 | 5.0 | 0.00 | 0.00 | 0.00 | 64 | 1020.9 |
| 20260830170112 | 84 | 65 | 2.0 | 9.0 | 0.00 | 0.00 | 0.00 | 67 | 1021.0 |
| 20260830164539 | 83 | 141 | 3.0 | 8.0 | 0.00 | 0.00 | 0.00 | 67 | 1021.2 |
| 20260830163010 | 83 | 64 | 2.0 | 9.0 | 0.00 | 0.00 | 0.00 | 68 | 1021.1 |
| 20260830161552 | 82 | 51 | 3.0 | 8.0 | 0.00 | 0.00 | 0.00 | 68 | 1020.9 |
| 20260830160022 | 82 | 106 | 2.0 | 8.0 | 0.00 | 0.00 | 0.00 | 68 | 1021.2 |
| 20260830154603 | 82 | 200 | 3.0 | 8.0 | 0.00 | 0.00 | 0.00 | 66 | 1021.2 |
| 20260830153046 | 82 | 200 | 3.0 | 8.0 | 0.00 | 0.00 | 0.00 | 65 | 1021.3 |
| 20260830151527 | 82 | 76 | 3.0 | 5.0 | 0.00 | 0.00 | 0.00 | 66 | 1021.3 |
| 20260830144538 | 82 | 167 | 3.0 | 8.0 | 0.00 | 0.00 | 0.00 | 64 | 1021.4 |
| 20260830143109 | 82 | 166 | 1.0 | 7.0 | 0.00 | 0.00 | 0.00 | 66 | 1021.6 |
| 20260830141538 | 81 | 22 | 1.0 | 7.0 | 0.00 | 0.00 | 0.00 | 66 | 1021.6 |
| 20260830140001 | 81 | 151 | 2.0 | 6.0 | 0.00 | 0.00 | 0.00 | 65 | 1021.8 |
| 20260830134539 | 81 | 62 | 1.0 | 6.0 | 0.00 | 0.00 | 0.00 | 66 | 1021.9 |
| 20260830133109 | 81 | 168 | 1.0 | 6.0 | 0.00 | 0.00 | 0.00 | 65 | 1022.1 |
| 20260830131544 | 80 | 176 | 1.0 | 5.0 | 0.00 | 0.00 | 0.00 | 66 | 1022.2 |
| 20260830130009 | 79 | 160 | 1.0 | 5.0 | 0.00 | 0.00 | 0.00 | 67 | 1022.3 |
| 20260830124601 | 78 | 42 | 2.0 | 6.0 | 0.00 | 0.00 | 0.00 | 69 | 1022.4 |
| 20260830123025 | 76 | 151 | 1.0 | 4.0 | 0.00 | 0.00 | 0.00 | 73 | 1022.6 |
| 20260830121608 | 73 | 139 | 1.0 | 4.0 | 0.00 | 0.00 | 0.00 | 78 | 1022.7 |
| 20260830120019 | 70 | 217 | 0.0 | 3.0 | 0.00 | 0.00 | 0.00 | 90 | 1022.6 |
| 20260830114603 | 69 | 163 | 0.0 | 0.0 | 0.00 | 0.00 | 0.00 | 94 | 1022.5 |
| 20260830113032 | 68 | 163 | 0.0 | 0.0 | 0.00 | 0.00 | 0.00 | 94 | 1022.7 |
| 20260830111502 | 67 | 163 | 0.0 | 0.0 | 0.00 | 0.00 | 0.00 | 94 | 1022.6 |
| 20260830110040 | 66 | 163 | 0.0 | 0.0 | 0.00 | 0.00 | 0.00 | 93 | 1022.6 |
| 20260830104514 | 66 | 163 | 0.0 | 0.0 | 0.00 | 0.00 | 0.00 | 94 | 1022.4 |
| 20260830103055 | 65 | 163 | 0.0 | 0.0 | 0.00 | 0.00 | 0.00 | 93 | 1022.4 |
| 20260830101522 | 65 | 163 | 0.0 | 0.0 | 0.00 | 0.00 | 0.00 | 93 | 1022.4 |
| 20260830100109 | 65 | 163 | 0.0 | 0.0 | 0.00 | 0.00 | 0.00 | 93 | 1022.4 |
| 20260830094601 | 66 | 163 | 0.0 | 0.0 | 0.00 | 0.00 | 0.00 | 93 | 1022.4 |
| 20260830093022 | 66 | 163 | 0.0 | 0.0 | 0.00 | 0.00 | 0.00 | 92 | 1022.4 |
| 20260830091600 | 66 | 163 | 0.0 | 0.0 | 0.00 | 0.00 | 0.00 | 93 | 1022.4 |
| 20260830090040 | 66 | 163 | 0.0 | 0.0 | 0.00 | 0.00 | 0.00 | 93 | 1022.3 |
| 20260830084502 | 66 | 163 | 0.0 | 0.0 | 0.00 | 0.00 | 0.00 | 93 | 1022.4 |
| 20260830083042 | 66 | 163 | 0.0 | 0.0 | 0.00 | 0.00 | 0.00 | 92 | 1022.2 |
| 20260830081517 | 67 | 163 | 0.0 | 0.0 | 0.00 | 0.00 | 0.00 | 92 | 1022.3 |
| 20260830080059 | 67 | 163 | 0.0 | 0.0 | 0.00 | 0.00 | 0.00 | 93 | 1022.3 |
| 20260830074531 | 65 | 163 | 0.0 | 0.0 | 0.00 | 0.00 | 0.00 | 92 | 1022.4 |
| 20260830073115 | 65 | 163 | 0.0 | 0.0 | 0.00 | 0.00 | 0.00 | 92 | 1022.2 |
| 20260830071538 | 66 | 163 | 0.0 | 0.0 | 0.00 | 0.00 | 0.00 | 92 | 1022.3 |
| 20260830070010 | 66 | 163 | 0.0 | 0.0 | 0.00 | 0.00 | 0.00 | 91 | 1022.5 |
| 20260830064553 | 66 | 163 | 0.0 | 0.0 | 0.00 | 0.01 | 0.00 | 91 | 1022.4 |
| 20260830063021 | 66 | 163 | 0.0 | 0.0 | 0.00 | 0.01 | 0.00 | 91 | 1022.6 |
| 20260830061636 | 67 | 163 | 0.0 | 0.0 | 0.00 | 0.01 | 0.00 | 90 | 1022.8 |